AO-07 1 07530U 74089B 21007.54206499 -.00000026 00000-0 12316-3 0 9997 2 07530 101.8320 342.3632 0012223 332.6587 137.3742 12.53646833111561 UO-11 1 14781U 84021B 21007.43362455 .00000097 00000-0 17904-4 0 9999 2 14781 97.5895 15.2439 0007041 247.1175 112.9296 14.83234902962068 LO-19 1 20442U 90005G 21007.82117189 -.00000007 00000-0 14152-4 0 9998 2 20442 98.7203 322.0226 0010676 274.3770 85.6194 14.32972807617886 HUBBLE 1 20580U 90037B 21007.47604198 .00000548 00000-0 22242-4 0 9996 2 20580 28.4710 50.1280 0002888 125.1023 10.7318 15.09530132486776 MET-2/21 1 22782U 93055A 21007.72026179 -.00000030 00000-0 -40758-4 0 9990 2 22782 82.5482 71.4851 0022826 25.5385 90.4958 13.83832322381569 AO-27 1 22825U 93061C 21007.46072348 -.00000005 00000-0 16027-4 0 9998 2 22825 98.9243 21.0623 0009116 138.4234 221.7642 14.30102908422978 IO-26 1 22826U 93061D 21007.46915688 -.00000005 00000-0 15855-4 0 9990 2 22826 98.9183 20.9955 0009789 127.3875 232.8200 14.30440370423211 FO-29 1 24278U 96046B 21007.25216843 -.00000068 00000-0 -32147-4 0 9996 2 24278 98.5859 96.4692 0350008 207.0462 151.2058 13.53101742204445 NOAA-15 1 25338U 98030A 21007.82897549 .00000023 00000-0 28113-4 0 9997 2 25338 98.6994 37.6499 0010883 33.4424 326.7441 14.26007536178351 GO-32 1 25397U 98043D 21007.46702942 -.00000008 00000-0 16165-4 0 9996 2 25397 98.7530 313.6272 0001499 144.2653 215.8626 14.23698838168582 ISS 1 25544U 98067A 21007.96816279 .00001613 00000-0 37065-4 0 9994 2 25544 51.6457 55.2089 0000614 186.8385 236.9442 15.49266603263765 NO-44 1 26931U 01043C 21007.31257150 -.00000023 00000-0 22766-4 0 9996 2 26931 67.0522 336.3025 0007427 272.5833 87.4418 14.30601861 6195 SO-50 1 27607U 02058C 21007.62565150 .00000011 00000-0 21926-4 0 9993 2 27607 64.5559 110.1184 0029409 93.7869 266.6597 14.75700314970986 CO-55 1 27844U 03031E 21007.58918678 .00000050 00000-0 42239-4 0 9993 2 27844 98.6816 18.2347 0009866 178.7399 181.3805 14.22280621909151 CO-57 1 27848U 03031J 21007.67547478 .00000044 00000-0 39609-4 0 9993 2 27848 98.6877 18.8875 0009530 191.3379 168.7585 14.21861681908996 RS-22 1 27939U 03042A 21007.74990740 .00000094 00000-0 25476-4 0 9990 2 27939 98.1157 146.2215 0014100 70.9018 289.3715 14.66930727923964 NOAA-18 1 28654U 05018A 21007.80114169 .00000080 00000-0 67874-4 0 9993 2 28654 99.0179 71.8630 0014399 19.2815 340.8898 14.12571046805856 CO-58 1 28895U 05043F 21007.59310240 .00000139 00000-0 35631-4 0 9993 2 28895 98.0353 144.5926 0016625 1.8165 358.3095 14.63851116810709 Falconsat-3 1 30776U 07006E 21007.52573595 .00004000 00000-0 10137-3 0 9996 2 30776 35.4353 53.2761 0003354 237.9464 122.0938 15.39262019768286 CO-65 1 32785U 08021C 21007.61951541 .00000303 00000-0 38140-4 0 9994 2 32785 97.5935 352.8928 0013130 169.8088 190.3398 14.88606865688311 AAUSAT2 1 32788U 08021F 21007.50242786 .00000342 00000-0 35864-4 0 9992 2 32788 97.4972 9.0153 0013256 90.1151 270.1590 14.95336842689800 DO-64 1 32789U 08021G 21007.57630482 .00001774 00000-0 11792-3 0 9997 2 32789 97.3959 49.0337 0011205 342.6211 17.4633 15.08369395692579 CO-66 1 32791U 08021J 21007.39894278 .00000445 00000-0 50001-4 0 9996 2 32791 97.5564 358.7297 0014170 138.0867 222.1439 14.91240018688776 RS-30 1 32953U 08025A 21007.66378369 .00000028 00000-0 12906-3 0 9996 2 32953 82.5032 150.9321 0018742 329.1413 30.8562 12.43099398573007 PRISM 1 33493U 09002B 21007.83162371 .00000802 00000-0 74400-4 0 9993 2 33493 98.1694 322.8786 0016566 96.7387 263.5719 14.97372360650298 NOAA-19 1 33591U 09005A 21007.82043412 .00000043 00000-0 48730-4 0 9992 2 33591 99.1929 24.4641 0013377 220.2235 139.7947 14.12447476614247 TISAT-1 1 36799U 10035E 21007.45779818 .00000582 00000-0 64153-4 0 9990 2 36799 98.2015 191.7689 0012680 26.8131 333.3739 14.91563415569336 JUGNU 1 37839U 11058B 21007.61978639 .00000304 00000-0 20220-4 0 9991 2 37839 19.9607 124.5965 0018941 118.7510 269.9067 14.12699556477692 SRMSAT 1 37841U 11058D 21007.23787243 .00000291 00000-0 14473-4 0 9999 2 37841 19.9702 195.4617 0011854 322.9576 193.3013 14.10682390476932 AO-71 1 37854U 11061E 21007.51365607 .00002583 00000-0 13429-3 0 9999 2 37854 101.7125 210.3898 0156213 174.7755 185.5134 15.08026693502229 HRBE 1 37855U 11061F 21007.59120166 .00002036 00000-0 10588-3 0 9993 2 37855 101.7260 207.5630 0168735 188.8729 170.9491 15.07052805501946 HORYU-2 1 38340U 12025D 21007.75085994 .00000179 00000-0 33824-4 0 9996 2 38340 98.2554 71.9473 0012710 107.9839 252.2756 14.75956927465090 RS-40 1 38735U 12041C 21007.56052318 .00000037 00000-0 19304-3 0 9994 2 38735 82.4764 233.3881 0017770 76.2638 284.0415 12.42581640383204 BEESAT-3 1 39135U 13015F 21007.48191864 .00001663 00000-0 88833-4 0 9992 2 39135 64.8672 2.2506 0019613 209.9433 150.0573 15.18804226426191 BEESAT-2 1 39136U 13015G 21007.41341366 .00001444 00000-0 79408-4 0 9995 2 39136 64.8741 8.2144 0030022 263.9624 95.8081 15.18183700426065 ZACUBE-1 1 39417U 13066B 21007.69906016 .00000334 00000-0 48091-4 0 9993 2 39417 97.5784 0.5069 0057991 329.5109 30.2737 14.81403499385276 TRITON-1 1 39427U 13066M 21007.81730295 .00000224 00000-0 43286-4 0 9991 2 39427 97.7553 323.7160 0114288 143.9253 216.9734 14.68127902381842 GOMX-1 1 39430U 13066Q 21007.70286194 .00000186 00000-0 43149-4 0 9992 2 39430 97.8070 300.0572 0149383 261.2332 97.1934 14.59518521379593 LO-74 1 39440U 13066AA 21007.53498953 .00000363 00000-0 56916-4 0 9995 2 39440 97.6556 345.0334 0080918 38.5319 322.1630 14.76134920382688 AO-73 1 39444U 13066AE 21007.71272734 .00000394 00000-0 54395-4 0 9999 2 39444 97.5706 2.8432 0056870 320.5466 39.1613 14.82286820384213 SPROUT 1 39770U 14029E 21007.78934236 .00000755 00000-0 88057-4 0 9993 2 39770 97.9076 119.3771 0009348 23.1652 336.9966 14.88112294359445 DUCHIFAT-1 1 40021U 14033M 21007.56343201 .00000711 00000-0 77532-4 0 9999 2 40021 97.9594 306.2151 0012457 341.1089 18.9665 14.91136189356300 NANOSATCBR1 1 40024U 14033Q 21007.56772898 .00000519 00000-0 59391-4 0 9999 2 40024 97.9408 301.8975 0011889 346.5745 13.5154 14.90268049355637 DTUSAT-2 1 40030U 14033W 21007.53651103 .00000374 00000-0 45942-4 0 9994 2 40030 97.9110 294.8908 0011692 351.2481 8.8530 14.88862767355889 EO-80 1 40032U 14033Y 21007.56210022 .00000335 00000-0 41736-4 0 9994 2 40032 97.9116 294.9207 0011624 352.1356 7.9677 14.88816102355352 ANTELSAT 1 40034U 14033AA 21007.55395073 .00000255 00000-0 44719-4 0 9990 2 40034 97.6902 219.2086 0059742 59.6851 301.0250 14.74376126352489 VELOX-1 1 40057U 14034E 21007.89421974 .00000356 00000-0 56996-4 0 9995 2 40057 98.3051 156.8365 0010486 205.0443 155.0263 14.78035409351827 DAURIA DX 1 1 40071U 14037C 21007.83856946 .00000115 00000-0 22265-4 0 9994 2 40071 98.4573 203.6070 0008053 194.5731 165.5248 14.81438652351512 HODOYOSHI-1 1 40299U 14070B 21007.83472432 .00000756 00000-0 33660-4 0 9999 2 40299 97.3049 85.6467 0012493 187.8994 309.7856 15.24405967342942 CHUBUSAT-1 1 40300U 14070C 21007.79622928 .00000842 00000-0 38721-4 0 9993 2 40300 97.2649 76.6050 0018618 210.3327 269.3962 15.22872103342605 QSAT-EOS 1 40301U 14070D 21007.81181013 .00002452 00000-0 92124-4 0 9998 2 40301 97.2732 83.4524 0024551 179.9472 319.4915 15.27850315343124 FIREBIRD FU3 1 40377U 15003B 21007.85759339 .00002488 00000-0 95877-4 0 9991 2 40377 99.0836 115.8528 0120457 351.3253 8.5894 15.21211821328370 FIREBIRD FU4 1 40378U 15003C 21007.83881568 .00002539 00000-0 97600-4 0 9993 2 40378 99.0841 115.9466 0120566 351.2303 8.6819 15.21249502328370 GRIFEX 1 40379U 15003D 21007.79364542 .00001620 00000-0 69887-4 0 9993 2 40379 99.0856 106.5114 0130896 20.4357 340.2040 15.17232701327822 NO-84 1 40654U 15025D 21006.44773165 .00014759 00000-0 14255-3 0 1479 2 40654 54.9846 81.0543 0098544 359.4835 0.6149 15.60780367200640 DEORBITSAIL 1 40719U 15032E 21007.67566217 .00000447 00000-0 70224-4 0 9996 2 40719 97.8474 257.0093 0014959 268.6495 91.3001 14.77199648296249 NUDT-PHONESAT 1 40900U 15049B 21007.76864137 .00003002 00000-0 12209-3 0 9996 2 40900 97.4262 23.0247 0011981 353.7602 60.4493 15.25258965294323 XW-2A 1 40903U 15049E 21007.84050260 .00002713 00000-0 61000-4 0 9994 2 40903 97.2607 62.7143 0011109 236.1577 177.7396 15.44173705298001 XW-2C 1 40906U 15049H 21007.76090627 .00000658 00000-0 37222-4 0 9994 2 40906 97.4823 12.1986 0015617 31.0093 21.5014 15.16412078293212 XW-2D 1 40907U 15049J 21007.73225183 .00001102 00000-0 59547-4 0 9998 2 40907 97.4814 11.9172 0014865 28.2234 86.1609 15.16691980293236 LILACSAT-2 1 40908U 15049K 21007.77564108 .00000561 00000-0 34187-4 0 9997 2 40908 97.4988 10.0319 0016875 40.1564 12.3343 15.14246255292913 XW-2E 1 40909U 15049L 21007.74093253 .00001509 00000-0 75271-4 0 9995 2 40909 97.4658 15.7210 0013834 17.8647 96.6689 15.18991335293532 XW-2F 1 40910U 15049M 21007.76846411 .00001357 00000-0 68967-4 0 9996 2 40910 97.4714 14.8220 0014943 16.6733 156.8355 15.18495705293330 XW-2B 1 40911U 15049N 21007.77030093 .00001038 00000-0 56434-4 0 9991 2 40911 97.4818 12.6509 0014767 29.1521 324.4884 15.16612974293124 DCBB 1 40912U 15049P 21007.75581942 .00001591 00000-0 74824-4 0 9991 2 40912 97.4471 19.1220 0014325 351.8879 122.2592 15.20962885293767 TW-1C 1 40926U 15051B 21007.86309595 .00141629 00000-0 55644-3 0 9998 2 40926 97.0520 68.5403 0002818 36.3584 80.0339 15.86542508299142 TW-1A 1 40928U 15051D 21007.83874438 .00003818 00000-0 84887-4 0 9999 2 40928 97.0923 36.6508 0010801 151.4108 260.9432 15.44205772296890 IO-86 1 40931U 15052B 21007.18940011 .00000847 00000-0 28850-4 0 9990 2 40931 5.9989 322.4845 0013681 284.3464 75.6015 14.76659564285425 LQSat 1 40958U 15057A 21007.70430333 .00000039 00000-0 13534-4 0 9999 2 40958 97.8271 70.1303 0017322 209.7174 150.3057 14.73150374282571 ATHENOXAT-1 1 41168U 15077C 21007.32607411 .00002561 00000-0 96590-4 0 9991 2 41168 14.9867 5.0278 0010916 86.7048 310.5049 15.15049088280305 ChubuSat-2 1 41338U 16012B 21007.61388998 .00000416 00000-0 25506-4 0 9994 2 41338 31.0029 128.5708 0013816 339.3413 20.6663 15.00418677268426 ChubuSat-3 1 41339U 16012C 21007.71969556 .00000380 00000-0 22665-4 0 9994 2 41339 31.0112 125.2962 0013876 348.2025 11.8287 15.00574644268432 Horyu-4 1 41340U 16012D 21007.57528902 .00000645 00000-0 41803-4 0 9995 2 41340 31.0052 111.7076 0013930 14.8624 345.2419 15.01705374268589 OUFTI-1 1 41458U 16025C 21007.29613206 .00003948 00000-0 19661-3 0 9995 2 41458 98.1221 135.0036 0159989 242.8783 115.6049 15.07721422258181 e-st@r-II 1 41459U 16025D 21007.60364086 .00002835 00000-0 14386-3 0 9993 2 41459 98.1211 134.5623 0161580 244.1845 114.2646 15.07221225258185 AAUSAT4 1 41460U 16025E 21007.87341840 .00004475 00000-0 21564-3 0 9995 2 41460 98.1207 137.9684 0150015 229.4454 129.3633 15.09899076258471 LO-87 1 41557U 16033B 21007.74716432 .00001834 00000-0 68145-4 0 9993 2 41557 97.3981 102.6741 0014892 85.8675 37.6056 15.28742338256974 NuSat2 1 41558U 16033C 21007.76983263 .00002038 00000-0 70894-4 0 9995 2 41558 97.4062 105.8050 0013855 81.3237 37.4607 15.30804177257139 Lapan A3 1 41603U 16040E 21007.91024706 .00000086 00000-0 70888-5 0 9994 2 41603 97.2812 60.7131 0012685 199.2493 333.6459 15.19940538252199 Swayam 1 41607U 16040J 21007.65354970 .00002218 00000-0 91401-4 0 9990 2 41607 97.2927 67.9778 0012872 179.2443 180.8817 15.25045648252530 Pratham 1 41783U 16059A 21007.41138132 .00000069 00000-0 22494-4 0 9997 2 41783 97.9897 62.8267 0034240 35.7544 324.5942 14.63103428228706 AlSat 1N 1 41789U 16059G 21007.66212988 .00000107 00000-0 28969-4 0 9998 2 41789 97.9933 66.3745 0028707 21.8770 338.3651 14.64378241228912 ScatSat 1 41790U 16059H 21007.87708546 .00000022 00000-0 17052-4 0 9990 2 41790 98.3910 50.4401 0005815 23.3229 336.8217 14.50802601226868 TY-1 1 41844U 16066D 21007.82445287 .00001196 00000-0 50219-4 0 9998 2 41844 97.4015 19.7341 0014566 351.1548 109.8105 15.25323490231412 Pegasus-1 1 41846U 16066F 21007.39427317 .00000212 00000-0 42810-4 0 9992 2 41846 98.6353 65.2993 0365971 345.8199 13.2925 14.37915097218271 CAS-2T 1 41847U 16066G 21007.41343463 .00000055 00000-0 19116-4 0 9993 2 41847 98.6269 65.6787 0365057 341.1046 17.6881 14.38134056218737 EO-88 1 42017U 17008BX 21007.69835304 .00002305 00000-0 88807-4 0 9993 2 42017 97.3379 78.0948 0005066 332.8811 27.2162 15.27336218216718 CAS-4B 1 42759U 17034B 21007.82946098 .00000326 00000-0 33073-4 0 9999 2 42759 43.0191 344.0121 0010381 244.4195 191.3830 15.10033549196860 CAS-4A 1 42761U 17034D 21007.82926634 .00000298 00000-0 31347-4 0 9996 2 42761 43.0202 343.1788 0011061 244.8639 191.4425 15.10113851196864 UCLSat 1 42765U 17036A 21007.64793235 .00001655 00000-0 70663-4 0 9993 2 42765 97.2744 62.1451 0011876 33.7304 326.4687 15.24193622197087 NIUSat 1 42766U 17036B 21007.09239645 .00001354 00000-0 61689-4 0 9997 2 42766 97.2742 58.5038 0015939 29.8627 330.3515 15.22226759196667 LituanicaSAT 2 1 42768U 17036D 21007.39738833 .00003076 00000-0 12511-3 0 9997 2 42768 97.2816 62.2591 0014594 22.5830 337.6047 15.25173531196919 Aalto 1 1 42775U 17036L 21007.59031648 .00000973 00000-0 45139-4 0 9993 2 42775 97.2717 59.2977 0014362 28.1139 332.0870 15.22259554196727 URSA MAIOR 1 42776U 17036M 21007.09278757 .00001231 00000-0 55973-4 0 9998 2 42776 97.2730 59.1951 0014185 29.3947 330.8085 15.22487432196662 Max Valier Sat 1 42778U 17036P 21007.69992586 .00001161 00000-0 52032-4 0 9994 2 42778 97.2791 61.4152 0012688 30.6627 329.5349 15.23121000196818 Pegasus 1 42784U 17036V 21007.58586886 .00001515 00000-0 65649-4 0 9992 2 42784 97.2751 61.6881 0012481 34.8281 325.3771 15.23827440196853 NUDATSat 1 42787U 17036Y 21007.51671052 .00003101 00000-0 12516-3 0 9995 2 42787 97.2794 63.5329 0012280 26.6569 333.5296 15.25458819196794 SUCHAI 1 1 42788U 17036Z 21007.66159329 .00001794 00000-0 75724-4 0 9997 2 42788 97.2761 62.5554 0011913 32.6358 327.5614 15.24494979196987 SKCUBE 1 42789U 17036AA 21007.40330137 .00001710 00000-0 72724-4 0 9993 2 42789 97.2755 62.0873 0011862 34.0609 326.1388 15.24284113196854 VZLUSAT 1 1 42790U 17036AB 21007.31163522 .00002553 00000-0 10368-3 0 9998 2 42790 97.2788 63.3244 0011164 31.8105 328.3805 15.25422940196917 VENTA 1 1 42791U 17036AC 21007.38049259 .00001698 00000-0 72301-4 0 9991 2 42791 97.2752 62.0942 0011565 34.8908 325.3085 15.24260991196843 Robusta 1B 1 42792U 17036AD 21007.39598147 .00001773 00000-0 74841-4 0 9993 2 42792 97.2758 62.3994 0011447 34.4846 325.7132 15.24496074196880 D-SAT 1 42794U 17036AF 21007.61480703 .00000467 00000-0 45267-4 0 9997 2 42794 97.4749 35.9438 0126925 43.8839 317.2378 14.91418136193125 TechnoSat 1 42829U 17042E 21007.61597991 .00000207 00000-0 26107-4 0 9995 2 42829 97.4913 245.4523 0013422 329.5688 30.4751 14.91199142189715 QIKCOM-1 1 42983U 98067NF 21007.83887945 .00007287 00000-0 81157-4 0 9998 2 42983 51.6384 353.7044 0004277 99.3580 260.7898 15.64036568182246 AO-91 1 43017U 17073E 21007.69806422 .00000596 00000-0 50748-4 0 9998 2 43017 97.7172 277.9847 0257340 104.6095 258.3801 14.79245663169358 EcAMSat 1 43019U 98067NG 21007.60810961 .00018126 00000-0 14239-3 0 9998 2 43019 51.6409 332.0018 0004626 95.7624 264.3901 15.71583194264834 PICSAT 1 43132U 18004X 21007.48479388 .00001964 00000-0 81117-4 0 9999 2 43132 97.4277 83.4134 0010647 61.2165 299.0141 15.25161169166144 AO-92 1 43137U 18004AC 21007.70244957 .00001419 00000-0 60222-4 0 9990 2 43137 97.4259 83.2936 0010368 62.8936 297.3358 15.24695910166157 TianYi 2 1 43155U 18008A 21007.86171243 .00001110 00000-0 68079-4 0 9994 2 43155 97.4243 77.5151 0017907 158.4525 257.1625 15.12042812163801 Zhou Enlai 1 43156U 18008B 21007.83441762 .00000739 00000-0 47102-4 0 9998 2 43156 97.4284 77.3258 0015101 156.8785 341.8390 15.11614450163742 TianYi 6 1 43158U 18008D 21007.78140297 .00000755 00000-0 48712-4 0 9999 2 43158 97.4224 76.0699 0014530 156.6616 322.3637 15.11101566163678 S-Net D 1 43186U 18014G 21007.46837982 .00000103 00000-0 13992-4 0 9995 2 43186 97.6860 277.8642 0009731 260.6861 99.3260 14.96939549160213 S-Net B 1 43187U 18014H 21007.46824762 .00000104 00000-0 14062-4 0 9998 2 43187 97.6858 277.8361 0009731 260.6090 99.4032 14.96939185160217 S-Net A 1 43188U 18014J 21007.33447408 .00000091 00000-0 12927-4 0 9996 2 43188 97.6861 277.7424 0009725 261.2807 98.7313 14.96937885160193 S-Net C 1 43189U 18014K 21007.46865733 .00000119 00000-0 15408-4 0 9994 2 43189 97.6857 277.8304 0009733 260.5399 99.4723 14.96938041158762 FMN 1 1 43192U 18015A 21007.84742043 .00003174 00000-0 12287-3 0 9994 2 43192 97.4670 142.8309 0016625 90.0516 30.4907 15.26812702163076 Shaonian Xing 1 43199U 18015H 21007.83640124 .00002264 00000-0 88800-4 0 9991 2 43199 97.4455 140.5222 0017814 99.1277 24.0368 15.26656053163130 SurfSat 1 43614U 18070B 21007.60319700 .00004055 00000-0 99531-4 0 9995 2 43614 93.0260 239.1965 0011779 268.2629 91.7277 15.40671814129894 CP-7 DAVE 1 43615U 18070C 21007.59330752 .00003801 00000-0 94017-4 0 9996 2 43615 93.0263 239.1676 0011969 267.8906 92.0978 15.40442122129880 ELFIN-B 1 43616U 18070D 21007.61335912 .00005694 00000-0 13138-3 0 9999 2 43616 93.0222 239.2118 0012019 268.1106 91.8773 15.42512903129967 ELFIN-A 1 43617U 18070E 21007.67883164 .00005838 00000-0 13329-3 0 9995 2 43617 93.0276 239.9323 0011396 263.7074 96.2884 15.42834525129985 STARS-Me Mother 1 43640U 98067PQ 21007.21616055 .00039816 00000-0 26252-3 0 9990 2 43640 51.6331 349.2490 0005303 81.4818 278.6782 15.75200885128721 CubeBel 1 1 43666U 18083E 21007.85201786 .00001443 00000-0 72511-4 0 9994 2 43666 97.4720 38.1520 0015123 15.2910 90.4999 15.18796279121633 Changshagaoxin 1 43669U 18083H 21007.86337777 .00001066 00000-0 56172-4 0 9994 2 43669 97.4610 35.7293 0011103 12.1776 161.3933 15.17712540121526 Ten-Koh 1 43677U 18084G 21007.59708764 .00000190 00000-0 25401-4 0 9990 2 43677 97.9022 130.4471 0015532 200.3996 159.6603 14.90382092119349 PO-101 1 43678U 18084H 21007.86936079 -.00000105 00000-0 -46570-5 0 9992 2 43678 97.9048 132.5549 0009070 214.8906 145.1714 14.91694113119498 IRVINE 01 1 43693U 18088D 21007.38539246 .00004206 00000-0 17047-3 0 9994 2 43693 85.0348 301.9041 0014454 259.8003 100.1610 15.24233170119893 QO-100 1 43700U 18090A 21007.85202023 .00000151 00000-0 00000 0 0 9990 2 43700 0.0118 70.3820 0001616 258.3904 111.3524 1.00271278 8004 Reaktor Hello World 1 43743U 18096AA 21007.66028166 .00001863 00000-0 70393-4 0 9994 2 43743 97.4032 86.3535 0018892 123.4904 236.8144 15.28108667117572 MinXSS-2 1 43758U 18099A 21007.23573014 .00000173 00000-0 20561-4 0 9998 2 43758 97.6871 81.6380 0014501 224.3034 135.7027 14.95870792114410 AO-95 1 43770U 18099N 21007.43965810 -.00000006 00000-0 46659-5 0 9996 2 43770 97.6856 81.0398 0013418 232.4912 127.5090 14.95162870114398 RANGE-B 1 43772U 18099Q 21007.43092670 .00000513 00000-0 51537-4 0 9995 2 43772 97.6935 81.7922 0013230 218.2399 141.7885 14.95413447114390 RANGE-A 1 43773U 18099R 21007.43575687 -.00000082 00000-0 -22790-5 0 9993 2 43773 97.6795 80.5106 0012608 218.3027 141.7299 14.95097385114380 MOVE-II 1 43780U 18099Y 21007.46107234 .00000642 00000-0 62854-4 0 9997 2 43780 97.6864 81.4284 0012600 228.6737 131.3401 14.95670072114409 SNUSat 2 1 43782U 18099AA 21007.43212154 .00000190 00000-0 22304-4 0 9998 2 43782 97.6855 81.3173 0011816 216.9350 143.1058 14.95419401114402 SnugLite 1 43784U 18099AC 21007.45322276 .00000123 00000-0 16215-4 0 9999 2 43784 97.6816 81.1074 0014151 226.1317 133.8735 14.95526301114428 ITASat 1 1 43786U 18099AE 21007.45859154 .00000203 00000-0 23503-4 0 9998 2 43786 97.6871 81.6238 0014265 225.3182 134.6877 14.95475919114429 EAGLET 1 1 43790U 18099AJ 21007.46570181 .00000424 00000-0 43017-4 0 9991 2 43790 97.6860 81.9753 0012539 228.9798 131.0340 14.95854048114140 ESEO 1 43792U 18099AL 21007.76267895 .00000118 00000-0 15714-4 0 9994 2 43792 97.6834 81.9756 0012138 224.5939 135.4306 14.95676002114243 CSIM 1 43793U 18099AM 21007.46689396 .00000792 00000-0 75077-4 0 9992 2 43793 97.6842 81.8419 0012359 221.5088 138.5195 14.96326909114198 Astrocast 0.1 1 43798U 18099AS 21007.43414942 .00000129 00000-0 16616-4 0 9995 2 43798 97.6865 82.0893 0011656 206.8094 153.2526 14.96008605114449 JO-97 1 43803U 18099AX 21007.44710821 -.00000007 00000-0 44997-5 0 9998 2 43803 97.6834 81.3878 0014181 225.6553 134.3506 14.95689784114420 Suomi 100 1 43804U 18099AY 21007.44994854 .00000022 00000-0 71828-5 0 9998 2 43804 97.6832 81.3689 0014266 225.7909 134.2141 14.95669040114437 Al Farabi 2 1 43805U 18099AZ 21007.80653346 .00000639 00000-0 62264-4 0 9994 2 43805 97.6826 81.8684 0014420 223.2829 136.7263 14.95838074114490 PWSat 2 1 43814U 18099BJ 21007.57959265 .00167417 00000-0 41564-2 0 9993 2 43814 97.7878 101.0315 0011532 236.8078 123.2062 15.39618151114737 CHOMPTT 1 43855U 18104G 21007.55636620 .00001257 00000-0 50787-4 0 9998 2 43855 85.0360 40.1129 0018183 27.2761 332.9432 15.23482479114593 ISAT 1 43879U 18111D 21007.72528399 .00000016 00000-0 64846-5 0 9998 2 43879 97.6937 277.7432 0011744 285.0288 74.9638 14.96444434109017 UWE-4 1 43880U 18111E 21007.67219101 .00000407 00000-0 40701-4 0 9999 2 43880 97.6954 278.0740 0010998 284.2950 75.7051 14.96685159109032 Sparrow 1 43881U 18111F 21007.71536136 .00000035 00000-0 80945-5 0 9997 2 43881 97.6969 278.2194 0011030 283.0189 76.9801 14.96739802109045 Lume 1 1 43908U 18111AJ 21007.60296304 .00001529 00000-0 62509-4 0 9999 2 43908 97.2494 267.3446 0021906 137.3468 222.9477 15.25643783113140 FO-98 1 43933U 19003B 21007.61063180 .00001660 00000-0 72408-4 0 9998 2 43933 97.2044 55.2713 0016407 239.3819 120.5801 15.23396154109596 FO-99 1 43937U 19003F 21007.60443038 .00001737 00000-0 71811-4 0 9997 2 43937 97.2003 57.0890 0022518 219.3551 140.6052 15.25062728109749 Delphini 1 1 44030U 98067PW 21007.21304234 .00096176 00000-0 42075-3 0 9990 2 44030 51.6303 351.4043 0005326 94.4934 265.6678 15.83878461110564 MYSat 1 1 44045U 18092F 21007.76825854 .00004201 00000-0 11984-3 0 9995 2 44045 51.6377 129.2922 0010691 345.3595 14.7078 15.38271570106717 AstroCast 0.2 1 44083U 19018F 21007.72243689 .00000964 00000-0 45194-4 0 9995 2 44083 97.3964 71.6766 0013340 169.4322 190.7197 15.22011971 98448 AISTechSat 3 1 44103U 19018AB 21007.85866416 .00001030 00000-0 45869-4 0 9995 2 44103 97.3828 72.1085 0013250 182.0012 298.2643 15.23619608 98551 AISat 1 1 44104U 19018AC 21007.77552710 .00001502 00000-0 49584-4 0 9998 2 44104 97.4437 84.5297 0056702 205.5687 154.2748 15.31557709 99076 Raavana-1 1 44329U 98067QE 21007.41840966 .00023295 00000-0 23831-3 0 9991 2 44329 51.6382 27.6592 0006508 45.5499 314.6028 15.64879362 88859 Uguisu 1 44330U 98067QF 21007.44641276 .00023077 00000-0 23787-3 0 9997 2 44330 51.6362 27.7926 0006488 44.7290 315.4227 15.64694102 88833 NepaliSat-1 1 44331U 98067QG 21007.40957236 .00023960 00000-0 24504-3 0 9999 2 44331 51.6360 27.5480 0006475 47.5979 312.5563 15.64868814 88841 Prox-1 1 44339U 19036A 21007.08925376 .00000923 00000-0 16799-3 0 9991 2 44339 24.0000 270.2831 0011421 215.4985 144.4747 14.53313145 81726 Oculus-ASR 1 44348U 19036K 21007.77172590 .00011233 00000-0 15768-3 0 9990 2 44348 28.5149 119.1952 0347901 334.1205 24.2355 15.07478512 84603 Armadillo 1 44352U 19036P 21007.48936770 .00016114 00000-0 21940-3 0 9993 2 44352 28.5299 109.6528 0326734 348.3515 10.9663 15.12538659 84620 NO-104 1 44354U 19036R 21007.48617799 .00010809 00000-0 14833-3 0 9990 2 44354 28.5298 116.3397 0343814 337.1568 21.4053 15.08740868 84602 NO-103 1 44355U 19036S 21007.47983085 .00022268 00000-0 27569-3 0 9996 2 44355 28.5280 92.6902 0303511 15.6817 345.2946 15.19232730 84847 CP9 1 44360U 19036X 21007.81088154 .00037650 -54495-5 34436-3 0 9998 2 44360 28.5092 55.7238 0261728 77.2916 285.6804 15.32950009 85104 Move-IIb 1 44398U 19038N 21007.57015646 .00001303 00000-0 76988-4 0 9992 2 44398 97.5623 332.5837 0025432 141.1668 219.1396 15.13010812 83437 SONATE 1 44400U 19038Q 21007.60810329 .00000900 00000-0 55464-4 0 9999 2 44400 97.5670 332.5970 0025974 140.1984 220.1160 15.12260501 83423 BeeSat 9 1 44412U 19038AC 21007.43395294 .00001282 00000-0 76384-4 0 9990 2 44412 97.5669 332.5935 0023235 145.3326 214.9425 15.12794903 83108 JAISAT-1 1 44419U 19038F 21007.45518599 .00001250 00000-0 73617-4 0 9995 2 44419 97.5673 333.0349 0022146 143.7564 216.5172 15.13278769 83443 LightSail-2 1 44420U 19036AC 21007.12295671 .00006284 00000-0 12879-2 0 9995 2 44420 24.0078 258.7565 0022219 212.9155 146.9954 14.58074399 80013 Taurus 1 1 44530U 19059C 21007.70206090 .00000582 00000-0 17643-3 0 9993 2 44530 98.5593 96.6885 0013206 263.5849 96.3840 14.45847878 69852 Duchifat 3 1 44854U 19089C 21007.23726157 .00000514 00000-0 47693-4 0 9998 2 44854 36.9676 333.8735 0008958 275.8853 84.0874 14.99284789 58896 OPS-SAT 1 44878U 19092F 21007.56415981 .00001436 00000-0 78022-4 0 9998 2 44878 97.4684 193.4884 0014292 14.8312 345.3337 15.16027120 58450 TO-108 1 44881U 19093C 21007.71435181 .00000005 00000-0 74305-5 0 9996 2 44881 97.9405 88.1807 0016309 93.6967 266.6117 14.81421664 56931 FloripaSat 1 1 44885U 19093G 21007.75470352 .00000356 00000-0 51376-4 0 9994 2 44885 97.9417 88.5817 0016040 103.4880 256.8128 14.82173452 56965 RS-44 1 44909U 19096E 21007.33730896 .00000021 00000-0 30580-4 0 9993 2 44909 82.5196 219.8403 0218314 109.7444 252.7345 12.79708089 48263 SwampSat-2 1 45115U 19071E 21007.65378194 .00020533 00000-0 47683-3 0 9991 2 45115 51.6390 89.4858 0009896 70.7823 289.4233 15.42284629 52543 HO-107 1 45119U 19071J 21007.43823033 .00003094 00000-0 10172-3 0 9994 2 45119 51.6427 96.9445 0012229 69.5020 290.7273 15.34673709 52431 Phoenix 1 45258U 98067RB 21007.57766856 .00007430 00000-0 12192-3 0 9996 2 45258 51.6412 51.9848 0006404 21.3569 338.7688 15.53529669 50177 AztechSat-1 1 45261U 98067RE 21007.47434101 .00016600 00000-0 22936-3 0 9990 2 45261 51.6404 49.0566 0007949 34.6129 325.5379 15.57262420 50232 QARMAN 1 45263U 98067RG 21007.38402678 .00013541 00000-0 20021-3 0 9990 2 45263 51.6408 51.4509 0007523 31.4652 328.6788 15.55612584 50221 Quetzal 1 1 45598U 98067RL 21007.39524550 .00012170 00000-0 18900-3 0 9996 2 45598 51.6419 53.7827 0002644 98.2591 261.8700 15.54389609 39467 BY70-2 1 45857U 20042B 21007.72781408 .00001137 00000-0 17005-3 0 9992 2 45857 97.9990 85.1025 0010838 19.2165 340.9452 14.76606993 27826 UPMSat 2 1 46276U 20061E 21007.79836575 .00000620 00000-0 35493-4 0 9990 2 46276 97.4512 84.6849 0001801 141.2960 218.8402 15.16225390 19196 AmicalSat 1 46287U 20061R 21007.44677822 .00000620 00000-0 41799-4 0 9998 2 46287 97.5065 84.1299 0001360 310.0159 50.0951 15.10167243 19047 SALSAT 1 46495U 20068K 21007.59028051 -.00000499 00000-0 -32156-4 0 9999 2 46495 97.6789 306.1960 0015439 256.3622 103.5886 15.03306594 15169 BY70-3 1 46839U 20079N 21007.89293108 .00002593 00000-0 84690-4 0 9998 2 46839 97.2585 84.9172 0008976 67.3367 52.8316 15.32605907 9609 Bobcat-1 1 46921U 98067RR 21007.50536067 .00006851 00000-0 12190-3 0 9990 2 46921 51.6438 56.7626 0001611 182.5603 177.5379 15.51382918 9851 SPOC 1 46922U 98067RS 21007.43319284 .00009317 00000-0 16055-3 0 9997 2 46922 51.6440 57.0322 0001129 184.1106 175.9875 15.51802332 9795 Neutron-1 1 46923U 98067RT 21007.38019331 .00006921 00000-0 12350-3 0 9994 2 46923 51.6437 57.4259 0001406 201.4800 158.6131 15.51280327 9862 /EX